Weather in Tounan

Russia / Republic of Karelia     61°18′54″N   29°32′54″E
temp.,
°C
wind,
m/s
gust,
m/s
humid.,
%
clouds,
%
prec.,
mm/h
press.,
hPa
HPBL,
m
27 july, tue
tue2700:00+18w22685 0.0 102040
03:00+19w245783 0.0 101988
06:00+18wsw23632 0.0 101967
09:00+25wsw23405 0.0 1019520
12:00+30wsw22296 0.0 10182370
15:00+31ene022598 0.0 10163259
18:00+23e2346100 0.0 1016134
21:00+22sse115481 0.0 101511
28 july, wed
wed2800:00+18ese116165 0.0 101514
03:00+16ese2273100 0.0 101421
06:00+18ese2267100 0.0 101255
09:00+23ese2353100 0.0 1011319
12:00+24e2349100 0.0 1010623
15:00+26se2144100 0.0 10091258
18:00+24ssw2252100 0.1 1007738
21:00+19nnw1181100 0.3 100615
29 july, thu
thu2900:00+16ese129227 0.0 100527
03:00+15ssw119783 0.0 100413
06:00+16ssw1597100 1.0 1003164
09:00+21sw367782 1.1 1002776
12:00+22sw4769100 0.8 10011230
15:00+23sw486441 2.6 10001467
18:00+22wsw59710 1.6 9991038
21:00+20sw412664 2.3 998708
30 july, fri
fri3000:00+18wsw412686 0.0 999614
03:00+16sw41183100 0.0 999558
06:00+16sw4118798 0.0 999731
09:00+20sw596197 0.0 9981360
12:00+21sw695519 0.9 9981761
15:00+23sw7104098 1.1 9972368
18:00+22ssw6114380 0.0 9972039
21:00+16ssw41172100 0.4 996986
31 july, sat
sat3100:00+15s41278100 0.0 995909
03:00+14sse51280100 0.1 9921036
06:00+15ssw6129320 5.1 9891002
09:00+15sw3109417 11.4 988741
12:00+20wsw696078 0.4 9891429
15:00+20w586440 1.1 9911413
18:00+19w576612 0.8 9931043
21:00+16wsw278226 0.9 995267